Location: Bailen
(14.1842°N, 120.7958°E)
Time: 11:59:16
(UTC+00:00)

Lacrosse 4 Rocket - Pass Details

Date: 26 April 2026
Orbit: 506 x 567 km, 68.0° (Epoch: 12 May)

Event Time Altitude Azimuth Distance (km) Brightness Sun altitude
Exits shadow 19:08:13 13° 58° (ENE) 1,520 4.3 -34.6°
Drops below altitude 10° 19:08:52 10° 51° (NE) 1,730 4.6 -34.4°
Sets 19:11:19 0° 38° (NE) 2,626 5.7 -33.9°
